Flag for Germany Weather past 2 weeks in Schwedt/Oder, Brandenburg, Germany

Now
55 °F

Clear.


Feels Like: 55 °F
Forecast: 62 / 72 °F
Wind: No wind

Location: Szczecin Airport

Current Time: Jul 7, 2015 at 3:04:29 AM

Latest Report: Jul 7, 2015 at 2:30 AM


Visibility: 10 mi

Pressure: 30.04 "Hg

Humidity: 88%

Dew point: 52 °F

Location of Schwedt/OderLocation

Historic Weather in Schwedt/Oder — Graph

°F

Schwedt/Oder temperature yesterday

Maximum temperature yesterday: 79 °F (at 12:30 AM)
Minimum temperature yesterday: 59 °F (at 11:00 PM)
Average temperature yesterday: 70 °F

Past Weeks' High & Low Weather Summary

 TemperatureHumidityPressure
High91 °F (Jul 4, 6:00 PM)100% (Jun 23, 6:30 AM)30.36 "Hg (Jun 23, 6:30 AM)
Low48 °F (Jun 22, 2:00 AM)26% (Jul 4, 2:30 PM)29.59 "Hg (Jun 23, 2:00 AM)
Average65 °F72%30.07 "Hg
* Reported Jun 22 2:00 AM — Jul 7 2:00 AM, Schwedt/Oder, Weather by CustomWeather, © 2015

Note: Actual official high and low records may vary slightly from our data, if they occured in-between our weather recording intervals... More about our weather records

Advertising

Schwedt/Oder weather history for previous 24 hours

 ConditionsComfort  
Time TempWeatherWind HumidityBarometerVisibility
2:00 AM
Tue, Jul 7
55 °FClear.No wind94%30.04 "Hg10 mi
1:30 AM57 °FClear.No wind88%30.04 "Hg10 mi
1:00 AM57 °FClear.No wind88%30.07 "Hg10 mi
12:30 AM57 °FClear.2 mph88%30.07 "Hg10 mi
12:00 AM57 °FClear.3 mph88%30.07 "Hg10 mi
11:00 PM
Mon, Jul 6
59 °FClear.2 mph82%30.07 "Hg10 mi
10:30 PM63 °FClear.2 mph77%30.07 "Hg10 mi
10:00 PM64 °FSunny.2 mph73%30.07 "Hg10 mi
9:30 PM66 °FSunny.2 mph64%30.07 "Hg10 mi
9:00 PM68 °FSunny.3 mph60%30.07 "Hg10 mi
8:30 PM68 °FSunny.5 mph60%30.07 "Hg10 mi
8:00 PM70 °FSunny.7 mph57%30.07 "Hg10 mi
7:30 PM72 °FSunny.7 mph50%30.07 "Hg10 mi
7:00 PM72 °FPassing clouds.12 mph47%30.07 "HgN/A
6:30 PM72 °FSunny.12 mph50%30.07 "Hg10 mi
6:00 PM72 °FPassing clouds.10 mph50%30.07 "HgN/A
5:30 PM73 °FSunny.10 mph47%30.07 "Hg10 mi
5:00 PM73 °FPassing clouds.12 mph47%30.07 "HgN/A
4:30 PM73 °FSunny.13 mph47%30.07 "Hg10 mi
4:00 PM73 °FPassing clouds.13 mph44%30.07 "HgN/A
3:30 PM73 °FSunny.14 mph44%30.07 "Hg10 mi
3:00 PM73 °FSunny.13 mph47%30.07 "Hg10 mi
2:30 PM75 °FPassing clouds.15 mph44%30.04 "HgN/A
2:00 PM73 °FPassing clouds.14 mph50%30.04 "HgN/A
1:30 PM73 °FPassing clouds.15 mph50%30.04 "HgN/A
1:00 PM73 °FScattered clouds.13 mph53%30.04 "HgN/A
12:30 PM70 °FScattered clouds.9 mph60%30.04 "HgN/A
12:00 PM70 °FPassing clouds.14 mph64%30.04 "HgN/A
11:30 AM70 °FScattered clouds.13 mph64%30.04 "HgN/A
11:00 AM68 °FScattered clouds.16 mph73%30.04 "HgN/A
10:30 AM68 °FScattered clouds.10 mph73%30.01 "HgN/A
10:00 AM64 °FBroken clouds.8 mph88%30.01 "HgN/A
9:30 AM64 °FBroken clouds.13 mph88%30.01 "HgN/A
9:00 AM66 °FScattered clouds.9 mph83%29.98 "HgN/A
8:30 AM66 °FBroken clouds.14 mph88%29.98 "HgN/A
8:00 AM68 °FBroken clouds.8 mph94%29.95 "HgN/A
7:30 AM68 °FBroken clouds.9 mph94%29.95 "Hg4 mi
7:00 AM68 °FLight rain. Scattered clouds.6 mph94%29.92 "Hg4 mi
6:30 AM68 °FClear.No wind100%29.89 "Hg4 mi
6:00 AM68 °FClear.6 mph100%29.92 "Hg4 mi
5:30 AM68 °FClear.5 mph100%29.92 "Hg4 mi
5:00 AM68 °FClear.5 mph100%29.92 "Hg4 mi
4:30 AM68 °FClear.2 mph100%29.92 "Hg4 mi
4:00 AM68 °FLight rain. Clear.8 mph100%29.92 "HgN/A
3:30 AM68 °FLight rain. Clear.2 mph94%29.89 "HgN/A
3:00 AM68 °FThundershowers. Passing clouds.8 mph94%29.89 "HgN/A
Weather by CustomWeather, © 2015

See weather overviewHow to use our weather pages